Regional Weather Roundup
Issued by NWS Goodland, KS

Home | Current Version | Previous Version | Graphics & Text | Print | Product List | Glossary On
Versions: 1 2 3 4 5 6 7 8 9 10 11 12 13 14 15 16 17 18 19 20 21 22 23 24 25 26 27 28 29 30 31 32 33 34 35 36 37 38 39 40 41 42 43 44 45 46 47 48 49 50
000
ASUS43 KGLD 271108
RWRGLD

GOODLAND FORECAST AREA HOURLY WEATHER ROUNDUP
NATIONAL WEATHER SERVICE GOODLAND KS
400 AM MST FRI FEB 27 2015

...OFFICIAL OBSERVATIONS...

CITY           SKY/WX    TMP DP  RH WIND       PRES   REMARKS
GOODLAND KS    LGT SNOW  11   7  84 SE12      30.28S FOG     WCI  -3
HILL CITY KS   CLOUDY     8  -1  66 E5        30.48R
IMPERIAL NEB   CLOUDY     6  -3  66 SE10      30.33F WCI  -9
MCCOOK NEB     CLOUDY     9  -1  64 E8        30.42F
AKRON CO       LGT SNOW   7   5  91 SE13      30.13S FOG     WCI  -9
BURLINGTON CO  LGT SNOW  11   6  81 SE15      30.20F WCI  -5
LIMON CO       LGT SNOW   6   3  87 SE15      30.07F FOG     WCI -12
$$

...UNOFFICIAL OBSERVATIONS...

CITY           SKY/WX    TMP DP  RH WIND       PRES   REMARKS
COLBY KS       FLURRIES  12   7  79 SE12      30.35S WCI  -2
GOVE KS          N/A     11  32 100 MISG        N/A
LENORA KS        N/A      6  32 100 CALM        N/A
NORTON KS      CLOUDY     9  -2  61 E6        30.45S
SHARON SPRINGS   N/A     12   9  89 S10G17      N/A  WCI  -1
KIT CARSON CO    N/A     11   8  86 MISG        N/A
YUMA CO          N/A      9   4  81 E7          N/A
$$


USA.gov is the U.S. government's official web portal to all federal, state and local government web resources and services.